Regional Weather Roundup
Issued by NWS

Home | Current Version | Previous Version | Text Only | Print | Product List | Glossary On
Versions: 1 2 3 4 5 6 7 8 9 10 11 12 13 14 15 16 17 18 19 20 21 22 23 24 25 26 27 28 29 30 31 32 33 34 35 36 37 38 39 40 41 42 43 44 45 46 47 48 49 50
000
ASUS43 KOAX 282310
RWRNE

WEATHER ROUNDUP FOR NEBRASKA
NATIONAL WEATHER SERVICE OMAHA NE
600 PM CDT TUE JUL 28 2015

NOTES: SATELLITE DATA IS BEING USED TO AUGMENT CLOUD COVER ABOVE
       12000 FEET.
       "FAIR" INDICATES FEW OR NO CLOUDS BELOW 12,000 FEET WITH NO
       SIGNIFICANT WEATHER AND/OR OBSTRUCTIONS TO VISIBILITY.

  * THESE STATIONS DO NOT REPORT WEATHER SUCH AS RAIN...SNOW OR FOG.

NEZ001>004-019>022-054>056-290000-
NEBRASKA PANHANDLE

CITY           SKY/WX    TMP DP  RH WIND       PRES   REMARKS
SCOTTSBLUFF    SUNNY     83  27  13 CALM      30.10S
ALLIANCE       SUNNY     81  30  15 NW15G25   30.09S
CHADRON        SUNNY     81  30  15 NW14G23   30.07S
KIMBALL        SUNNY     80  27  14 N10       30.14S
SIDNEY         SUNNY     82  31  15 NE8       30.14S
$$

NEZ057>060-069>072-079>082-290000-
SOUTHWEST NEBRASKA

CITY           SKY/WX    TMP DP  RH WIND       PRES   REMARKS
NORTH PLATTE   SUNNY     83  45  26 N12       30.05R
IMPERIAL       SUNNY     84  41  21 N13       30.08R
LEXINGTON      SUNNY     84  52  33 N8        30.03R
MCCOOK         SUNNY     87  48  25 NE13      30.03R
OGALLALA       SUNNY     83  41  22 N7        30.08S
$$

NEZ005>010-023>029-035>040-094-290000-
NORTH CENTRAL NEBRASKA

CITY           SKY/WX    TMP DP  RH WIND       PRES   REMARKS
VALENTINE      SUNNY     83  37  19 W16G23    30.03R
AINSWORTH      SUNNY     83  42  24 W13       30.03S
BROKEN BOW     SUNNY     85  52  32 N6        30.02S
O`NEILL        MOSUNNY   80  54  40 NW9G16    30.01S
ORD            MOSUNNY   83  52  34 N9        29.99S
THEDFORD       SUNNY     82  45  26 NW12G17   30.07S
$$

NEZ041-046>049-061>064-073>077-083>087-290000-
SOUTH CENTRAL NEBRASKA

CITY           SKY/WX    TMP DP  RH WIND       PRES   REMARKS
GRAND ISLAND   MOSUNNY   82  55  39 N13       29.99R
AURORA         CLOUDY    76  63  64 N8        29.98S
HASTINGS       PTSUNNY   82  61  48 N13       29.99R
HEBRON         SUNNY     82  70  66 N16G22    29.92R
HOLDREGE       SUNNY     81  54  39 N10       30.01S
KEARNEY *      SUNNY     82  54  36 N14       30.00S
YORK           MOSUNNY   75  64  69 N14       29.97R
$$

NEZ011>018-030>034-042>045-290000-
NORTHEAST NEBRASKA

CITY           SKY/WX    TMP DP  RH WIND       PRES   REMARKS
NORFOLK        PTSUNNY   82  59  45 N12       29.96F
ALBION         MOSUNNY   81  54  38 N13       29.99S
BLAIR          PTSUNNY   76  70  80 NW14G20   29.92R
COLUMBUS *     CLOUDY    77  61  57 N5        29.96S
FREMONT        PTSUNNY   78  68  72 NW8       29.94R
TEKAMAH        CLOUDY    79  71  76 N12G20    29.91S
WAYNE          PTSUNNY   79  62  55 N10       29.97R
$$

NEZ050>053-065>068-078-088>093-290000-
SOUTHEAST NEBRASKA

CITY           SKY/WX    TMP DP  RH WIND       PRES   REMARKS
LINCOLN        MOSUNNY   82  70  66 N18       29.91S
OMAHA EPPLEY   PTSUNNY   80  73  79 N18       29.89R
BEATRICE       CLOUDY    84  76  77 N20G25    29.88R HX  94
FALLS CITY     SUNNY     94  77  57 S9        29.83F HX 108
NEBRASKA CITY  MOSUNNY   88  75  64 NW5       29.85F HX  97
PLATTSMOUTH    MOSUNNY   87  78  74 NW8       29.87S HX 100
$$

NEZ044-045-051>053-067-290000-
OMAHA AREA

CITY           SKY/WX    TMP DP  RH WIND       PRES   REMARKS
OMAHA EPPLEY   PTSUNNY   80  73  79 N18       29.89R
BLAIR          PTSUNNY   76  70  80 NW14G20   29.92R
FREMONT        PTSUNNY   78  68  72 NW8       29.94R
MILLARD        SUNNY     81  73  76 NW10G22   29.90R
OFFUTT AFB     SUNNY     87  78  74 NW20      29.86R HX  98
PLATTSMOUTH    MOSUNNY   87  78  74 NW8       29.87S HX 100
WAHOO          CLOUDY    77  71  80 N12G18    29.93R
$$


USA.gov is the U.S. government's official web portal to all federal, state and local government web resources and services.